World > North America > United States > Texas > Mason  

Mason, TX Hourly Weather Updates

Feedback E-mail the Weather

Quick Clicks

Mason, TX Weather Maps

°F °C°F °C
Mason Weather Map
UTC Time: 7/12/2024, 17:41
Your Time:

Mason, TX Regional Weather

Expires:202407121800;;901676
ASUS44 KSJT 121710
RWRSJT
WEST CENTRAL TEXAS REGIONAL WEATHER ROUNDUP
NATIONAL WEATHER SERVICE SAN ANGELO TX
1200 PM CDT FRI JUL 12 2024

NOTE: "FAIR" INDICATES FEW OR NO CLOUDS BELOW 12,000 FEET WITH NO
SIGNIFICANT WEATHER AND/OR OBSTRUCTIONS TO VISIBILITY.


TXZ049-054-064>066-071>073-076>078-098-099-113-114-127-128-139-140-
154-155-168>170-121800-
...LOCATIONS ACROSS WEST CENTRAL TEXAS...
  
CITY           SKY/WX    TMP DP  RH WIND       PRES   REMARKS
SAN ANGELO     SUNNY     90  61  37 VRB7      30.12F TC  32           
ABILENE        SUNNY     90  64  42 VRB6      30.13S TC  32           
DYESS AFB      SUNNY     91  61  36 SW6G17    30.10S TC  33           
JUNCTION       SUNNY     86  67  52 S8        30.13F TC  30           
SWEETWATER       N/A     92  60  33 SW6       30.17F TC  34           
BROWNWOOD      NOT AVBL                                               
COLEMAN        SUNNY     88  63  42 MISG      30.14F TC  31           
SAN SABA       PTSUNNY   89  67  48 SW9       30.13S TC  31           
SONORA         MOSUNNY  N/A N/A N/A S9        30.19S                  
OZONA          SUNNY     84  59  42 S9G17     30.17F TC  29           
BRADY          NOT AVBL                                               
$$


SKY/WX - Weather  TMP - Temperature  DP - Dew Point  RH - Humidity
WIND - Wind Direction/Speed PRES - Barometric Pressure VSB - Visibility
WCI - Wind Chill Index E13G22 Wind - East Wind 13 mph/Gusts of 22 mph

Trending Headlines

Trending Entertainment Headlines

Mason Radar Loop

Use the map search tool if you want to place a location marker on the radar map...

Mason Quick Facts

National Two Day Weather Forecast


E-mail the Mason Weather Forecast

Voice your opinion or tell us about page issues...